Regional Weather Roundup
Issued by NWS Bismarck, ND

Home | Current Version | Previous Version | Graphics & Text | Print | Product List | Glossary On
Versions: 1 2 3 4 5 6 7 8 9 10 11 12 13 14 15 16 17 18 19 20 21 22 23 24 25 26 27 28 29 30 31 32 33 34 35 36 37 38 39 40 41 42 43 44 45 46 47 48 49 50
000
ASUS43 KBIS 240320
RWRBIS

NWR BROADCAST TEXT
NATIONAL WEATHER SERVICE BISMARCK ND
1000 PM CDT WED JUL 23 2014

NOTE: "FAIR" INDICATES FEW OR NO CLOUDS BELOW 12,000 FEET WITH NO
SIGNIFICANT WEATHER AND/OR OBSTRUCTIONS TO VISIBILITY.


CITY           SKY/WX    TMP DP  RH WIND       PRES   REMARKS
WILLISTON      MOCLDY    78  63  59 E14       30.01F
MINOT          CLEAR     69  63  81 E10       30.10F
MINOT AFB      CLEAR     69  67  96 E13       30.10S
BISMARCK       CLEAR     71  60  68 SE10      30.10S
DICKINSON      CLEAR     69  60  73 SE12      30.05S
GARRISON         N/A     72  65  78 SE9       30.09F
HETTINGER ARPT CLEAR     72  56  57 E14       30.07S
JAMESTOWN      CLEAR     68  60  75 SE7       30.16S
CARRINGTON     FAIR      66  66 100 E9        30.17S
CROSBY           N/A     68  68 100 E14       30.06S
HARVEY         FAIR      64  64 100 E9        30.14S
HAZEN          FAIR      68  61  77 E8        30.08F
LINTON         FAIR      70  59  68 SE9       30.12R
MANDAN         FAIR      70  59  68 SE10      30.12R
RUGBY          FAIR      64  63  94 E12       30.15S
STANLEY        FAIR      68  68 100 SE12      30.09F
TIOGA          FAIR      70  70 100 E12G18    30.10S
WATFORD CITY   FAIR      73  59  60 SE10      30.01F
$$

CITY           SKY/WX    TMP DP  RH WIND       PRES   REMARKS
GRAND FORKS    PTCLDY    65  60  84 N3        30.17S
GRAND FORKS AF CLEAR     65  59  79 NE3       30.19S
DEVILS LAKE    CLEAR     66  57  72 E10       30.16S
FARGO          CLEAR     68  59  73 E5        30.17S
CANDO          MOCLDY    64  59  82 E10       30.18S
CAVALIER       FAIR      61  57  88 CALM      30.19R
GRAFTON        FAIR      63  57  82 CALM      30.18S
GWINNER        CLEAR     66  63  88 E6        30.18S
LANGDON        FAIR      57  55  94 E6        30.20S
ROLLA          MOCLDY    64  63  94 E9        30.19F
WALHALLA         N/A     59  59 100 CALM        N/A
$$

CITY           SKY/WX    TMP DP  RH WIND       PRES   REMARKS
ABERDEEN       CLEAR     68  59  73 E7        30.15S
MOBRIDGE       CLEAR     72  57  59 SE12      30.08F
BUFFALO          N/A     74  60  61 E16       29.96F
RAPID CITY     MOCLDY    74  66  76 S6        30.05F
GLASGOW        PTCLDY    85  63  47 E17       29.87F
SIDNEY         MOCLDY    79  63  57 SE8       29.98F
WOLF POINT     MOCLDY    85  63  47 E12       29.91F
GLENDIVE       PTCLDY    79  61  53 E14G22    29.97S
MILES CITY     PTCLDY    88  62  41 E10       29.87F
BAKER          PTCLDY    74  62  66 E21G29    30.00F
$$

CITY           SKY/WX    TMP DP  RH WIND       PRES   REMARKS
BILLINGS       PTCLDY    85  60  42 NE6       29.90F
GREAT FALLS    LGT RAIN  77  48  36 SW29G52   29.92R SQUALL
REGINA         CLOUDY    72  63  73 SE17G26   30.04F
ESTEVAN        PTCLDY    68  63  83 E12       30.09F
$$



USA.gov is the U.S. government's official web portal to all federal, state and local government web resources and services.